RH
38 38 37 35 37 35 35 36 35 33 30 29 31 32 33 33 32 33 33 35 37 38 40 43 45 44 47 50 55 55 58 66 70 66 66 63 63 62
43 44 44 44 40 40 40 39 39 40 37 34 34 34 35 35 36 36 38 40 42 45 47 49 51 54 54 56 54 57 64 79 73 70 66 63 63 57
45 43 45 46 47 47 43 41 43 45 43 37 38 40 39 41 41 42 43 46 47 48 51 52 54 58 60 60 71 70 76 82 75 71 69 65 63 58
49 48 44 50 49 48 47 49 43 49 47 43 41 43 44 45 45 44 46 46 47 50 55 60 63 64 69 69 76 78 83 81 81 78 74 70 68 59
54 52 48 50 52 54 54 55 52 51 52 52 47 46 48 48 49 48 49 51 53 56 59 67 73 74 78 85 81 85 87 86 87 80 79 72 66 60
54 54 55 52 52 55 55 55 56 58 56 58 60 53 53 52 53 54 53 53 57 62 68 75 80 79 87 90 89 95 91 91 85 78 78 70 66 65
59 58 59 56 59 56 55 55 57 59 59 60 60 61 59 57 56 58 59 64 66 72 81 85 91 77 81 97 89 91 92 87 84 87 81 74 71 68
65 70 64 63 62 65 62 65 65 67 66 71 67 65 61 64 66 70 72 77 75 83 84 80 89 75 82 90 94 92 87 89 90 82 78 75 74 71
72 68 66 66 67 68 68 71 72 72 71 70 70 65 76 76 84 78 85 87 96 92 79 71 72 74 82 98 95 85 95 97 94 87 79 78 77 75
85 83 88 81 83 81 80 78 77 79 80 86 82 94 87 86 96 92 88 87 88 81 76 73 77 70 86 84 79 90 92 91 91 83 81 82 78 75
94 89 94 94 95 90 93 98 90 86 90 90 90 94 93 93 91 93 80 78 83 73 74 76 77 83 82 83 93 94 90 90 83 85 87 82 78 74
84 87 89 91 97 92 96 94 93 91 86 81 83 79 77 82 81 76 76 78 81 75 75 79 77 84 85 84 87 90 89 87 88 91 88 84 77 72
66 78 73 77 81 87 78 73 64 61 59 59 61 64 68 70 73 75 78 79 78 76 78 80 81 86 88 86 85 90 89 90 94 94 87 84 79 69
55 57 59 59 57 57 59 61 62 62 63 63 64 66 67 68 73 76 75 77 78 81 82 84 83 86 87 90 93 94 96 94 93 90 88 88 79 71
53 52 51 52 53 55 59 61 64 66 66 67 70 71 72 76 78 80 82 83 84 86 87 88 89 93 93 94 98 97 96 95 95 90 92 86 77 71
63 63 62 62 64 65 67 68 68 69 71 73 72 72 76 79 82 85 87 91 92 91 91 93 95 97 98 98 98 96 96 95 92 91 89 82 77 74
65 65 65 65 63 61 63 69 70 69 70 73 73 73 76 80 83 88 90 93 93 94 95 97 98 98 97 97 96 97 97 97 96 94 87 84 78 76
47 48 48 51 58 59 59 60 62 62 62 62 65 68 72 75 79 85 89 92 94 97 98 98 98 97 97 97 97 97 97 97 96 94 89 84 83 79
33 32 33 33 33 37 39 42 45 51 57 62 63 62 62 65 73 77 80 83 87 91 94 96 97 98 97 96 97 97 97 96 97 95 89 89 85 84
24 25 25 26 27 28 30 32 34 36 38 42 45 54 60 68 74 74 72 75 80 83 86 88 92 92 93 95 95 95 97 97 95 92 92 89 87 84
29 31 32 32 31 31 32 31 32 34 39 40 40 41 44 51 54 59 67 72 78 78 76 78 82 85 85 91 87 91 95 95 93 92 94 87 85 84
31 31 31 31 31 31 33 36 39 40 41 45 46 46 49 51 50 50 53 59 62 65 69 73 75 74 78 77 79 87 85 86 86 86 80 76 79 74
34 33 34 35 35 36 37 39 39 40 43 47 50 51 53 55 54 55 59 60 60 59 62 68 67 68 71 74 76 77 82 79 79 80 73 71 73 76